Regional Weather Roundup
Issued by NWS

Home | Current Version | Previous Version | Text Only | Print | Product List | Glossary Off
Versions: 1 2 3 4 5 6 7 8 9 10 11 12 13 14 15 16 17 18 19 20 21 22 23 24 25 26 27 28 29 30 31 32 33 34 35 36 37 38 39 40 41 42 43 44 45 46 47 48 49 50

000
ASUS43 KFSD 290002
RWRSD

WEATHER ROUNDUP FOR SOUTH DAKOTA
NATIONAL WEATHER SERVICE SIOUX FALLS SD
700 PM CDT SUN MAY 28 2017

NOTE: "FAIR" INDICATES FEW OR NO CLOUDS BELOW 12,000 FEET WITH NO
SIGNIFICANT WEATHER AND/OR OBSTRUCTIONS TO VISIBILITY.


SDZ001>005-009-010-012>017-290100-
NORTHWEST AND NORTH CENTRAL SOUTH DAKOTA

CITY           SKY/WX    TMP DP  RH WIND       PRES   REMARKS
BUFFALO          N/A     72  32  23 NW25G43   29.93R
FAITH            N/A     72  33  24 N22G37    29.93F
MOBRIDGE       MOSUNNY   75  34  22 N22G30    29.84R
$$

SDZ012>016-024>037-041>051-057-063-072>074-290100-
SOUTHWEST AND SOUTH CENTRAL SOUTH DAKOTA

CITY           SKY/WX    TMP DP  RH WIND       PRES   REMARKS
RAPID CTY ARPT MOSUNNY   64  47  53 W12       30.03F
PIERRE         SUNNY     72  39  30 W20       29.88F
CUSTER         CLOUDY    56  41  57 VRB6      30.13F
PHILIP         CLOUDY    69  47  45 W15       29.96F
PINE RIDGE     PTSUNNY   63  46  54 N28G36    30.13R
SPEARFISH      FAIR      64  39  39 W13G24    30.07F
WINNER         CLOUDY    68  44  42 NW14      29.96R
$$

SDZ004>011-016>023-039-040-290100-
NORTHEAST SOUTH DAKOTA

CITY           SKY/WX    TMP DP  RH WIND       PRES   REMARKS
ABERDEEN       PTSUNNY   68  42  38 N12       29.83S
WATERTOWN      LGT RAIN  57  48  72 N8        29.85R
BROOKINGS      TSTM      54  49  83 W8        29.89R
SISSETON         N/A     65  48  54 NW17      29.77F
$$

SDZ017-020-022-023-036>040-048>070-290100-
SOUTHEAST SOUTH DAKOTA

CITY           SKY/WX    TMP DP  RH WIND       PRES   REMARKS
SIOUX FALLS    PTSUNNY   74  40  29 NW15G26   29.82F
HURON          CLOUDY    72  47  40 N16       29.83R
CHAMBERLAIN    CLOUDY    74  42  31 W14G22    29.90F
MITCHELL       CLOUDY    75  38  26 NW20G32   29.85S
YANKTON        SUNNY     75  40  28 W17       29.87F
$$

ABBREVIATIONS USED IN REMARKS
   TC - TEMPERATURE IN CELSIUS
  WCI - WIND CHILL INDEX
   HX - HEAT INDEX
  VSB - VISIBILITY





USA.gov is the U.S. government's official web portal to all federal, state and local government web resources and services.